Content
SEND FEEDBACK

Daily
Averages
Monthly
Summary
Germany

RAMSTEIN, GERMANY


Home > Europe > Germany
Elevation: 781 feet     Latitude: 49 25N     Longitude: 007 36E

WEATHER
 
SELECT A DAY
Number of Records: 396,625;   Date Range: 7/3/96 - 12/18/14
 
SHARE

PRINT THIS DATA

[ ← Previous Day ]
WEATHER ALMANAC - JANUARY 31, 2013
[ Next Day → ]
[ °C ]   °F
Weather ElementAverageHighLow
Temperature45.8 °F48.6 °F (1:58 pm)41 °F (8:09 am)
Dewpoint37.1 °F39.2 °F (4:39 pm)33.8 °F (5:22 am)
Humidity71.8 %81 % (8:09 am)61 % (1:58 pm)
Barometer30.05 in30.18 in (2:58 am)29.94 in (4:08 pm)
Wind Speed16.6 mph25.3 mph (5:32 pm)
Wind Gust41.4 mph (4:08 pm)
Weather ElementAverage
Visibility6.2 mi
Wind DirectionWSW (238.2 °)

Weather ElementTotal
Precipitation0.03 in
Heating Degree Days20.2 (Base 65)
Averaged from 57 records on January 31, 2013
WEATHER CONDITIONS BREAKOUT
WIND DIRECTION BREAKOUT
WEATHER BY HOUR - JANUARY 31, 2013
[ °C ]   °F
Local TimeTemperatureDewpointHumidityBarometerVisibilityWind DirectionWind SpeedGust SpeedPrecipitationEventsConditions
1:58 AM43.3 °F36.0 °F75 %30.15 in6.2 miWSW (250°)16.1 mph23.0 mphPartly Cloudy
2:58 AM44.1 °F36.0 °F73 %30.18 in6.2 miWSW (240°)18.4 mph25.3 mphOvercast
3:58 AM44.8 °F34.9 °F68 %30.16 in6.2 miSW (230°)18.4 mph26.5 mphOvercast
4:58 AM44.1 °F35.1 °F71 %30.17 in6.2 miWSW (240°)17.3 mph25.3 mphOvercast
5:22 AM44.6 °F33.8 °F66 %30.14 in6.2 miWSW (250°)23.0 mph29.9 mphOvercast
5:58 AM43.5 °F35.1 °F72 %30.18 in6.2 miWSW (250°)18.4 mph25.3 mphOvercast
6:11 AM42.8 °F35.6 °F76 %30.15 in6.2 miWSW (240°)13.8 mph21.9 mphScattered Clouds
6:58 AM42.3 °F35.2 °F76 %30.18 in6.2 miSW (230°)11.5 mph19.6 mphPartly Cloudy
7:26 AM42.8 °F35.6 °F76 %30.15 in6.2 miSW (220°)10.4 mph19.6 mphMostly Cloudy
7:33 AM42.8 °F35.6 °F76 %30.15 in6.2 miSW (220°)10.4 mphScattered Clouds
7:58 AM41.5 °F35.6 °F79 %30.17 in6.2 miSW (220°)10.4 mph17.3 mphScattered Clouds
8:09 AM41.0 °F35.6 °F81 %30.15 in6.2 miSSW (210°)15.0 mph18.4 mphMostly Cloudy
8:58 AM42.6 °F36.0 °F77 %30.18 in6.2 miSW (220°)9.2 mph20.7 mphOvercast
9:15 AM42.8 °F35.6 °F76 %30.14 in6.2 miWSW (240°)13.8 mph21.9 mphOvercast
9:29 AM42.8 °F35.6 °F76 %30.14 in6.2 miWSW (240°)11.5 mph18.4 mphMostly Cloudy
10:58 AM44.6 °F36.9 °F74 %30.13 in6.2 miSW (230°)11.5 mph26.5 mphPartly Cloudy
11:06 AM44.6 °F37.4 °F76 %30.10 in6.2 miSW (230°)15.0 mph23.0 mphMostly Cloudy
11:08 AM44.6 °F37.4 °F76 %30.10 in6.2 miSW (220°)15.0 mph23.0 mphMostly Cloudy
11:10 AM44.6 °F37.4 °F76 %30.10 in6.2 miWSW (240°)13.8 mph23.0 mphMostly Cloudy
11:42 AM46.4 °F37.4 °F71 %30.07 in6.2 miWSW (250°)15.0 mph18.4 mphOvercast
11:58 AM46.0 °F37.2 °F71 %30.09 in6.2 miSW (230°)17.3 mph31.1 mphMostly Cloudy
12:15 PM46.4 °F37.4 °F71 %30.04 in6.2 miSW (230°)13.8 mph32.2 mphScattered Clouds
1:58 PM48.6 °F35.8 °F61 %30.02 in6.2 miWSW (240°)18.4 mph27.6 mphMostly Cloudy
2:58 PM47.7 °F34.7 °F61 %30.00 in6.2 miWSW (240°)21.9 mph35.7 mphMostly Cloudy
3:23 PM48.2 °F35.6 °F62 %29.95 in6.2 miWSW (240°)17.3 mph25.3 mphRainLight Rain
3:36 PM46.4 °F35.6 °F66 %29.95 in6.2 miWSW (240°)19.6 mph31.1 mphRainLight Rain
3:39 PM46.4 °F35.6 °F66 %29.96 in6.2 miSW (230°)18.4 mph31.1 mphOvercast
3:58 PM47.1 °F36.9 °F68 %29.98 in6.2 miSW (230°)20.7 mph38.0 mph0.00 inOvercast
4:08 PM46.4 °F37.4 °F71 %29.94 in6.2 miSW (230°)18.4 mph41.4 mphRainLight Rain
4:18 PM46.4 °F37.4 °F71 %29.95 in6.2 miWSW (240°)18.4 mph31.1 mphMostly Cloudy
4:27 PM46.4 °F37.4 °F71 %29.95 in6.2 miSW (230°)17.3 mph27.6 mphRainLight Rain
4:39 PM46.4 °F39.2 °F76 %29.95 in6.2 miSW (230°)21.9 mph28.8 mphOvercast
4:58 PM47.3 °F38.1 °F70 %29.98 in6.2 miSW (230°)18.4 mph31.1 mph0.03 inOvercast
5:32 PM48.2 °F39.2 °F71 %29.95 in6.2 miWSW (240°)25.3 mph32.2 mphRainLight Rain
5:43 PM48.2 °F39.2 °F71 %29.95 in6.2 miWSW (240°)21.9 mph36.8 mphOvercast
5:58 PM47.7 °F38.8 °F71 %29.98 in6.2 miWSW (240°)19.6 mph32.2 mph0.00 inOvercast
5:59 PM48.2 °F39.2 °F71 %29.95 in6.2 miWSW (240°)19.6 mph32.2 mphRainLight Rain
6:09 PM48.2 °F39.2 °F71 %29.95 in6.2 miWSW (240°)24.2 mph32.2 mphMostly Cloudy
6:18 PM48.2 °F39.2 °F71 %29.96 in6.2 miWSW (250°)20.7 mph32.2 mphMostly Cloudy
6:19 PM48.2 °F39.2 °F71 %29.96 in6.2 miWSW (250°)20.7 mph32.2 mphMostly Cloudy
6:35 PM48.2 °F39.2 °F71 %29.97 in6.2 miWSW (250°)18.4 mph39.1 mphMostly Cloudy
6:58 PM47.7 °F38.8 °F71 %30.01 in6.2 miWSW (240°)16.1 mph25.3 mph0.00 inOvercast
7:58 PM47.3 °F39.2 °F73 %30.02 in6.2 miWSW (240°)13.8 mphOvercast
8:58 PM46.2 °F38.3 °F74 %30.03 in6.2 miWSW (240°)17.3 mph21.9 mphMostly Cloudy
9:09 PM46.4 °F37.4 °F71 %30.00 in6.2 miWSW (240°)11.5 mph23.0 mphMostly Cloudy
9:20 PM46.4 °F37.4 °F71 %30.01 in6.2 miWSW (240°)15.0 mph23.0 mphOvercast
9:28 PM46.4 °F37.4 °F71 %30.01 in6.2 miWSW (250°)17.3 mph21.9 mphMostly Cloudy
9:30 PM46.4 °F37.4 °F71 %30.01 in6.2 miWSW (250°)15.0 mph21.9 mphMostly Cloudy
9:58 PM45.9 °F38.1 °F74 %30.05 in6.2 miWSW (240°)13.8 mphMostly Cloudy
10:15 PM46.4 °F37.4 °F71 %30.02 in6.2 miWSW (240°)13.8 mph21.9 mphMostly Cloudy
10:21 PM46.4 °F37.4 °F71 %30.02 in6.2 miWSW (250°)15.0 mphMostly Cloudy
10:58 PM46.0 °F38.1 °F74 %30.05 in6.2 miWSW (250°)16.1 mph20.7 mphMostly Cloudy
11:23 PM46.4 °F37.4 °F71 %30.01 in6.2 miWSW (250°)15.0 mphScattered Clouds
11:36 PM46.4 °F37.4 °F71 %30.01 in6.2 miWSW (250°)15.0 mphMostly Cloudy
11:52 PM46.4 °F37.4 °F71 %30.01 in6.2 miWSW (250°)18.4 mphScattered Clouds
11:57 PM46.4 °F37.4 °F71 %30.01 in6.2 miWSW (250°)16.1 mphMostly Cloudy
11:58 PM46.4 °F37.4 °F71 %30.04 in6.2 miWSW (240°)16.1 mphMostly Cloudy
Hourly data recorded from ETAR, located miles away from Ramstein, Germany







STORIES FROM OUR PARTNERS